Weather Roundup
Issued by NWS

Home | Current Version | Previous Version | Text Only | Print | Product List | Glossary On
Versions: 1 2 3 4 5 6 7 8 9 10 11 12 13 14 15 16 17 18 19 20 21 22 23 24 25 26 27 28 29 30 31 32 33 34 35 36 37 38 39 40 41 42 43 44 45 46 47 48 49 50
328
NZUS93 KARX 180010
HRRWXR

CURRENT HOURLY OBSERVATIONS ACROSS
MUCH OF THE UPPER MISSISSIPPI VALLEY
NATIONAL WEATHER SERVICE LA CROSSE WI
700 PM CDT TUE OCT 17 2017


...SOUTHEAST MINNESOTA...


CITY           SKY/WX    TMP DP  RH WIND       PRES   REMARKS
ROCHESTER      CLEAR     57  46  66 S8        29.99R
ROCHESTER/MAYO FAIR      66  43  43 S8        29.98S
WINONA         CLEAR     59  48  67 CALM      29.98R
AUSTIN         CLEAR     63  43  48 S5        29.98S
ALBERT LEA     CLEAR     64  46  52 S5        29.98R
DODGE CENTER   CLEAR     57  45  62 S6        29.98S
PRESTON        CLEAR     61  43  52 S8        30.00S
OWATONNA       CLEAR     63  46  55 S8        29.96R
FARIBAULT      CLEAR     64  43  45 CALM      29.95S
$$

...ELSEWHERE IN MINNESOTA...


CITY           SKY/WX    TMP DP  RH WIND       PRES   REMARKS
MINNEAPOLIS    PTCLDY    66  42  41 S6        29.92S
INTNL FALLS    CLOUDY    61  37  41 S5        29.74F
DULUTH         CLEAR     58  40  51 S8        29.88S
RED WING       CLEAR     57  45  62 CALM      29.94R
REDWOOD FALLS  CLEAR     65  40  39 S8        29.89S
MANKATO        CLEAR     68  38  33 S6        29.94R
WORTHINGTON    CLEAR     63  40  42 S6        29.95S
FAIRMONT       CLEAR     63  41  44 S8        29.95S
$$

...SOUTHWEST WISCONSIN...


CITY           SKY/WX    TMP DP  RH WIND       PRES   REMARKS
LA CROSSE      CLEAR     62  49  62 SE6       29.98S
PRAIRIE DU CHI CLEAR     67  39  36 CALM      30.02R
BOSCOBEL       CLEAR     65  44  46 SW5       30.03R
LONE ROCK      CLEAR     61  46  57 CALM      30.03R
PLATTEVILLE    CLEAR     61  46  57 S10       30.06R
FORT MC COY    CLEAR     56  48  74 CALM      30.01S
CAMP DOUGLAS   MOCLDY    54  46  76 SE3       30.00S
MAUSTON-NEW LI CLOUDY    56  49  78 CALM      30.00S
VIROQUA        FAIR      64  46  52 S3        30.02R
WIS DELLS      CLEAR     61  43  51 SW8       30.03R
$$

...ELSEWHERE IN WISCONSIN...


CITY           SKY/WX    TMP DP  RH WIND       PRES   REMARKS
MILWAUKEE      PTCLDY    65  43  44 SW10      30.07R
MADISON        PTCLDY    65  45  48 S10       30.05R
GREEN BAY      CLOUDY    59  50  72 S5        30.02R
EAU CLAIRE     CLOUDY    60  46  59 S8        29.95S
BLACK RVR FLS  FAIR      61  44  53 S3        29.98S
MEDFORD        CLEAR     58  43  57 S7        29.99R
WAUSAU         CLEAR     60  46  59 S8        29.98R
WIS RAPIDS     CLOUDY    59  48  67 S6        30.01S
MARSHFIELD     PTCLDY    58  44  60 S3        29.99R
RICE LAKE      CLEAR     57  43  61 S5        29.96S
$$

...NORTHEAST IOWA...


CITY           SKY/WX    TMP DP  RH WIND       PRES   REMARKS
WATERLOO       CLEAR     61  43  51 S8        30.02R
DUBUQUE        CLEAR     58  43  57 S10       30.06S
DECORAH        CLEAR     64  45  48 S7        30.00R
MASON CITY     CLEAR     56  43  61 S9        30.00S
CHARLES CITY   CLEAR     63  43  48 S7        30.01S
OELWEIN        CLEAR     61  45  55 S8        30.04R
$$

...ELSEWHERE IN IOWA...


CITY           SKY/WX    TMP DP  RH WIND       PRES   REMARKS
DES MOINES     CLEAR     64  45  49 S7        30.03S
IOWA CITY      CLEAR     61  44  53 S7        30.09R
FORT DODGE     CLEAR     63  45  51 S8        30.00R
MARSHALLTOWN   CLEAR     62  45  53 S8        30.02S
CEDAR RAPIDS   CLEAR     61  43  51 S7        30.06R
$$

...NORTHERN ILLINOIS...


CITY           SKY/WX    TMP DP  RH WIND       PRES   REMARKS
CHICAGO-OHARE  PTCLDY    64  41  42 SW10      30.11S
CHICAGO-MIDWAY CLEAR     65  40  39 SW12G21   30.13R
MOLINE         CLEAR     58  44  60 S3        30.10R
ROCKFORD       PTCLDY    58  42  55 S8        30.11R
PEORIA         CLEAR     58  40  51 S8        30.15S
$$

NOTE: "FAIR" INDICATES FEW OR NO CLOUDS BELOW 12,000 FEET WITH NO
SIGNIFICANT WEATHER AND/OR OBSTRUCTIONS TO VISIBILITY. WIND
SPEEDS ARE IN MILES-PER-HOUR.




USA.gov is the U.S. government's official web portal to all federal, state and local government web resources and services.